Regional Weather Roundup
Issued by NWS Upton, NY

Current Version | Previous Version | Text Only | Print | Product List | Glossary On
Versions: 1 2 3 4 5 6 7 8 9 10 11 12 13 14 15 16 17 18 19 20 21 22 23 24 25 26
000
ASUS41 KOKX 182005
RWROKX

REGIONAL WEATHER ROUNDUP
NATIONAL WEATHER SERVICE NEW YORK NY
400 PM EDT FRI APR 18 2014

NOTE: "FAIR" INDICATES FEW OR NO CLOUDS BELOW 12,000 FEET WITH NO
SIGNIFICANT WEATHER AND/OR OBSTRUCTIONS TO VISIBILITY.

NYZ071-072-176-178-NJZ106-104-182100-
NEW YORK CITY METRO AREA


CITY           SKY/WX    TMP DP  RH WIND       PRES   REMARKS
CENTRAL PARK   CLOUDY    49  30  48 NE6       30.39F
LAGUARDIA APRT CLOUDY    44  29  55 NE9       30.38F
KENNEDY INTL   CLOUDY    44  30  57 VRB5      30.40F
NEWARK/LIBERTY CLOUDY    47  30  51 E7        30.38F
TETERBORO      CLOUDY    49  29  46 E6        30.36F
$$

NYZ177-179-078>081-182100-
LONG ISLAND NEW YORK

CITY           SKY/WX    TMP DP  RH WIND       PRES   REMARKS
FARMINGDALE    CLOUDY    44  32  62 VRB3      30.38F
ISLIP          CLOUDY    47  33  58 SE8       30.36F
SHIRLEY        CLOUDY    45  34  65 SE7       30.39F
WESTHAMPTON    CLOUDY    45  33  63 SE6       30.40F
MONTAUK POINT    N/A     46  34  62 S6        30.40F
$$

NYZ052-065-067-182100-
HUDSON VALLEY

CITY           SKY/WX    TMP DP  RH WIND       PRES   REMARKS
WHITE PLAINS   CLOUDY    43  26  51 E9        30.35F
NEWBURGH       MOSUNNY   48  28  46 CALM      30.37F
MONTGOMERY     CLOUDY    49  25  39 S6        30.34F
POUGHKEEPSIE   CLOUDY    49  27  42 W3        30.36F
ALBANY         CLOUDY    50  25  37 S10       30.33F
$$

NJZ001-105-106-008-010-013-015-019>022-104-182100-
NEW JERSEY

CITY           SKY/WX    TMP DP  RH WIND       PRES   REMARKS
NEWARK/LIBERTY CLOUDY    47  30  51 E7        30.38F
TETERBORO      CLOUDY    49  29  46 E6        30.36F
CALDWELL       CLOUDY    48  27  44 CALM      30.37F
MORRISTOWN     CLOUDY    48  27  43 CALM      30.38F
SOMERVILLE     NOT AVBL
LINDEN         FAIR      48  28  46 S6        30.40F
SUSSEX         CLOUDY    52  24  33 S5        30.33F
ANDOVER          N/A     50  25  37 VRB5      30.34F
TRENTON        PTSUNNY   50  30  46 S7        30.35F
MILLVILLE      PTSUNNY   52  37  56 VRB5      30.36F
ATLANTIC CITY  CLOUDY    48  36  63 E12       30.38F
WRIGHTSTOWN    CLOUDY    51  32  48 CALM      30.34F
TOMS RIVER     PTSUNNY   46  32  57 E3        30.39F
BELMAR         CLOUDY    43  30  61 E8        30.38F
$$

PAZ047>061-062-071-182100-
EASTERN PENNSYLVANIA

CITY           SKY/WX    TMP DP  RH WIND       PRES   REMARKS
PHILADELPHIA   CLOUDY    53  30  41 CALM      30.37F
ALLENTOWN      CLOUDY    52  30  43 SW7       30.36F
SCRANTON       CLOUDY    53  28  38 SW12G18   30.29F
$$

CTZ002-004>006-009-010-012-RIZ004-006-007-MAZ004-011-015-182100-
SOUTHERN NEW ENGLAND
 IN CT

CITY           SKY/WX    TMP DP  RH WIND       PRES   REMARKS
BRADLEY INTL   CLOUDY    47  26  44 S5        30.37F
HARTFORD       CLOUDY    48  27  44 CALM      30.37F
DANBURY        CLOUDY    48  30  49 SE9       30.36F
WTRBRY/OXFORD  SUNNY     48  30  49 SE7       30.37F
BRIDGEPORT     CLOUDY    44  30  57 E5        30.39F
MERIDEN        CLOUDY    48  30  49 S6        30.37F
NEW HAVEN      CLOUDY    44  31  60 S6        30.39F
CHESTER        FAIR      46  32  57 S7        30.38F
GROTON         CLOUDY    44  35  70 SW7       30.38F
WILLIMANTIC    CLOUDY    49  28  44 W3        30.38F

 IN RI

CITY           SKY/WX    TMP DP  RH WIND       PRES   REMARKS
PROVIDENCE     CLOUDY    49  29  46 VRB5      30.39F
BLOCK ISLAND   PTSUNNY   45  34  65 E7        30.39F
WESTERLY       CLOUDY    44  33  65 S7        30.39F

 IN MA

CITY           SKY/WX    TMP DP  RH WIND       PRES   REMARKS
BOSTON         CLOUDY    41  31  67 E8        30.42F
WORCESTER      CLOUDY    42  27  55 SE6       30.36F
WESTFIELD      CLOUDY    48  26  42 SE6       30.36F
PROVINCETOWN   CLOUDY    39  37  93 MISG      30.43F
NANTUCKET      CLOUDY    45  35  68 N9        30.40R
$$

ANZ330-335-338-340-345-350-353-355-182100-
COASTAL MARINE OBSERVATIONS


STATION/POSITION TIME  SKY/WX   TEMP    WIND        PRES    VSBY  WAVE
                                AIR SEA DIR/SP/G                  HT/PER
                 (UTC)          (F)     (DEG/KT/KT) (MB)    (MI)  (FT/S)
NY HARB ENTRANCE 2000            40 44   20/  2/  4 1029.5
4S FIRE IS       1900               44                N/A           5/11
23SW MTP         2000            40 42   50/  8/ 10 1029.0          6/11
HUDSON CANYON    1900            41 45   20/ 12/ 16 1029.6          8/11
EXECUTION ROCKS  2000            42 42   40/  8/ 10   N/A
WESTERN LI SOUND 2000            41      50/  8/ 10   N/A           1
CENTRAL LI SOUND 1900            42 42  170/  4/  6   N/A           0
EASTERN LI SOUND NOT AVBL
ROBBINS REEF     2000            41     180/  8/ 10   N/A
$$


>>>>>>>>>>>>>>>>>>>>>>>>>>>> KEY <<<<<<<<<<<<<<<<<<<<<<<<<<<
>                                                          <
>     SKY/WX - SKY CONDITION/PRESENT WEATHER               <
>     TMP    - TEMPERATURE IN FAHRENHEIT                   <
>     DP     - DEWPOINT IN FAHRENHEIT                      <
>     RH     - RELATIVE HUMIDITY IN PERCENT                <
>     WIND   - DIRECTION AND SPEED IN MPH                  <
>     PRES   - MEAN SEA LEVEL PRESSURE IN INCHES OF HG     <
>     WCI    - WIND CHILL INDEX                            <
>     VSB    - VISIBILITY IN MILES                         <
>     HX     - HEAT INDEX                                  <
>     TC     - TEMPERATURE IN CELSIUS                      <
>     VRB    - VARIABLE WIND DIRECTION                     <
>                                                          <
>>>>>>>>>>>>>>>>>>>>>>>>>>>> KEY <<<<<<<<<<<<<<<<<<<<<<<<<<<





USA.gov is the U.S. government's official web portal to all federal, state and local government web resources and services.